Location: Oberwangen
(47.4286°N, 8.9679°E)
Time: 22:24:21
(UTC+00:00)

Cosmos 990 Rocket - Pass Details

Date: 20 June 2021
Orbit: 747 x 768 km, 74.0° (Epoch: 23 July)

Event Time Altitude Azimuth Distance (km) Brightness Sun altitude
Rises 23:32:35 0° 339° (NNW) 3,227 8.4 -19.1°
Reaches altitude 10° 23:34:58 10° 341° (NNW) 2,294 7.5 -19.1°
Maximum altitude 23:40:10 72° 66° (ENE) 797 4.1 -19.1°
Enters shadow 23:42:50 29° 145° (SE) 1,360 4.9 -19.0°
